Weather Roundup
Issued by NWS Springfield, MO

Home | Current Version | Previous Version | Text Only | Print | Product List | Glossary On
Versions: 1 2 3 4 5 6 7 8 9 10 11 12 13 14 15 16 17 18 19 20 21 22 23 24 25 26 27 28 29 30 31 32 33 34 35 36 37 38 39 40 41 42 43 44 45 46 47 48 49 50
000
NZUS99 KSGF 181507
HRRSGF

HOURLY WEATHER
NATIONAL WEATHER SERVICE SPRINGFIELD MO
900 AM CST THU DEC 18 2014

......SGF CWA......

CITY           SKY/WX    TMP DP  RH WIND       PRES   REMARKS
SPRINGFIELD    CLOUDY    34  32  92 SE10      30.18R WCI  26
JOPLIN         CLOUDY    36  35  96 E3        30.20R FOG
WEST PLAINS    FOG       33  31  92 SE5       30.23R VSB 1   WCI  29
ROLLA          LGT SNOW  30  28  92 E9        30.22R FOG     WCI  22
OSAGE BEACH    CLOUDY    32  28  86 E7        30.22S WCI  26
BRANSON        LGT RAIN  34  32  93 CALM      30.20R FOG

......SURROUNDING SGF CWA......

CITY           SKY/WX    TMP DP  RH WIND       PRES   REMARKS
CHANUTE        CLOUDY    32  30  92 CALM      30.20R FOG
PARSONS        CLOUDY    34  34 100 CALM      30.21R FOG
COFFEYVILLE    FOG       34  34 100 E5        30.21R VSB 3/4 WCI  30
EMPORIA        CLOUDY    28  27  96 N6        30.19S FOG     WCI  22
GROVE OK       CLOUDY    37  37 100 S3        30.21R
ROGERS AR      CLOUDY    36  36 100 SE5       30.19R WCI  32
SILOAM SPRINGS CLOUDY    37  30  75 S3        30.20R
HARRISON AR    CLOUDY    34  34 100 SE8       30.20R FOG     WCI  27
NEAR YELLVILLE CLOUDY    36  30  80 SE5       30.23R WCI  32

......KANSAS AND MISSOURI......

CITY           SKY/WX    TMP DP  RH WIND       PRES   REMARKS
KANSAS CTY INT LGT SNOW  28  27  96 E8        30.23R FOG     WCI  20
DOWNTOWN KC    LGT SNOW  30  27  88 E9        30.24R FOG     WCI  22
COLUMBIA       SNOW      29  27  92 E8        30.25R VSB 1/2 WCI  21
SEDALIA        LGT SNOW  31  29  92 E8        30.24R FOG     WCI  23
ST JOSEPH      LGT SNOW  28  26  92 E5        30.26R FOG     WCI  23
ST LOUIS       FLURRIES  30  24  78 NE6       30.30S WCI  24
SPIRIT OF STL  LGT SNOW  29  27  92 NE6       30.30R FOG     WCI  23
KIRKSVILLE     LGT SNOW  26  24  92 E6        30.28R FOG     WCI  19
WICHITA        FOG       32  30  92 NE5       30.18R VSB 1/4 WCI  27
TOPEKA         CLOUDY    30  28  92 NE5       30.23S FOG     WCI  25
OLATHE         LGT SNOW  29  28  96 E7        30.20S FOG     WCI  22

......TENNESSEE......

CITY           SKY/WX    TMP DP  RH WIND       PRES   REMARKS
MEMPHIS        CLOUDY    40  35  83 E3        30.25R
NASHVILLE      CLOUDY    34  32  92 CALM      30.26R FOG

......ARKANSAS.......

CITY           SKY/WX    TMP DP  RH WIND       PRES   REMARKS
FAYETTEVILLE   CLOUDY    36  35  96 S5        30.19R WCI  32
FT SMITH       CLOUDY    37  34  89 E10       30.22S FOG     WCI  30
LITTLE ROCK    DRIZZLE   39  36  89 NE5       30.25R FOG

......OKLAHOMA.......

CITY           SKY/WX    TMP DP  RH WIND       PRES   REMARKS
TULSA          CLOUDY    38  37  97 SE5       30.19S FOG     WCI  34
PONCA CITY     FOG       37  36  96 E3        30.18R VSB 1
MCALESTER      CLOUDY    42  40  92 E3        30.18S
OKLAHOMA CITY  DRIZZLE   40  37  89 SE3       30.15R FOG

......IOWA............

CITY           SKY/WX    TMP DP  RH WIND       PRES   REMARKS
DES MOINES     CLOUDY    23  17  78 SE3       30.29S
QUAD CITIES    CLOUDY    22  17  81 CALM      30.31S

......ILLINOIS........

CITY           SKY/WX    TMP DP  RH WIND       PRES   REMARKS
QUINCY         LGT SNOW  26  23  88 NE5       30.29S FOG     WCI  20
CHICAGO        PTSUNNY   22  15  75 W6        30.29S WCI  14



USA.gov is the U.S. government's official web portal to all federal, state and local government web resources and services.